Home > Weather > Unalaska > Past weeks

Flag for USA Past Weather in Unalaska, Alaska, USA — Yesterday and Last 2 Weeks

Now
51 °F

Light rain. Overcast.


Feels Like: 46 °F
Forecast: 50 / 52 °F
Wind: 14 mph from Southeast

Location: Dutch Harbor

Current Time: Jun 29, 2016 at 10:21:22 AM

Latest Report: Jun 29, 2016 at 9:59 AM


Visibility: 10 mi

Pressure: 29.83 "Hg

Humidity: 80%

Dew Point: 45 °F

Location of UnalaskaLocation

Past Weather in Unalaska — Graph

°F

Unalaska Temperature Yesterday

Maximum temperature yesterday: 54 °F (at 12:49 PM)
Minimum temperature yesterday: 51 °F (at 12:56 AM)
Average temperature yesterday: 52 °F

High & Low Weather Summary for the Past Weeks

 TemperatureHumidityPressure
High66 °F (Jun 21, 7:56 PM)100% (Jun 16, 2:49 AM)30.28 "Hg (Jun 16, 2:49 AM)
Low43 °F (Jun 27, 5:56 AM)56% (Jun 20, 9:59 AM)29.34 "Hg (Jun 18, 9:56 AM)
Average50 °F79%30.03 "Hg
* Reported Jun 14 8:58 AM — Jun 29 8:56 AM, Unalaska, Weather by CustomWeather, © 2016

Note: Actual official high and low records may vary slightly from our data, if they occured in-between our weather recording intervals... More about our weather records

Advertising

Unalaska Weather History for the Previous 24 Hours

Scroll right to see more
 ConditionsComfort  
Time TempWeatherWind HumidityBarometerVisibility
8:56 AM
Wed, Jun 29
51 °FLight rain. Mostly cloudy.16 mph83%29.83 "Hg10 mi
7:54 AM52 °FLight rain. Overcast.14 mph82%29.83 "Hg5 mi
6:59 AM51 °FLight rain. Fog.16 mph83%29.84 "Hg6 mi
5:56 AM51 °FLight rain. Overcast.17 mph83%29.84 "Hg10 mi
4:56 AM52 °FOvercast.21 mph80%29.85 "Hg10 mi
3:56 AM51 °FLight rain. Overcast.16 mph83%29.87 "Hg10 mi
2:56 AM51 °FOvercast.17 mph86%29.88 "Hg10 mi
1:56 AM52 °FLight rain. Mostly cloudy.24 mph83%29.88 "Hg10 mi
12:56 AM52 °FLight rain. Mostly cloudy.24 mph83%29.88 "Hg10 mi
10:56 PM
Tue, Jun 28
52 °FLight rain. More clouds than sun.14 mph80%29.90 "Hg10 mi
9:56 PM52 °FScattered clouds.17 mph75%29.90 "Hg10 mi
9:03 PM52 °FPassing clouds.18 mph77%29.90 "Hg10 mi
8:59 PM52 °FBroken clouds.17 mph77%29.90 "Hg10 mi
7:59 PM52 °FBroken clouds.16 mph80%29.91 "Hg10 mi
6:59 PM51 °FMostly cloudy.18 mph83%29.93 "Hg10 mi
5:56 PM51 °FLow clouds.18 mph83%29.94 "Hg10 mi
4:56 PM52 °FCloudy.20 mph80%29.96 "Hg10 mi
3:59 PM54 °FLow clouds.12 mph72%29.98 "Hg10 mi
2:56 PM53 °FMostly cloudy.14 mph74%29.97 "Hg10 mi
1:59 PM53 °FPartly sunny.17 mph77%29.98 "Hg10 mi
12:49 PM54 °FPartly sunny.14 mph72%29.98 "Hg10 mi
11:58 AM51 °FBroken clouds.17 mph80%29.99 "Hg10 mi
10:59 AM52 °FMostly cloudy.18 mph77%29.99 "Hg10 mi
Weather by CustomWeather, © 2016

See weather overviewHow to use our weather pages